Location: Rounton
(54.4000°N, 1.3500°W)
Time: 03:51:23
(UTC+00:00)

S-56A Canister/Altair - Pass Details

Date: 09 December 2021
Orbit: 633 x 2499 km, 38.9° (Epoch: 17 January)

Event Time Altitude Azimuth Distance (km) Brightness Sun altitude
Rises 21:51:46 0° 219° (SW) 5,853 12.0 -50.7°
Enters shadow 21:54:21 - 214° (SW) 5,204 11.7 -50.9°
Reaches altitude 10° 21:56:52 10° 207° (SSW) 4,593 - -51.2°
Maximum altitude 22:05:34 24° 162° (SSE) 3,062 - -52.1°
Drops below altitude 10° 22:12:19 10° 114° (ESE) 3,469 - -52.8°
Sets 22:15:31 0° 100° (E) 4,163 - -53.1°
